contact:dominique.lefevre@mio.osupytheas.fr, maurice.libes@osupytheas.fr, didier.mallarino@osupytheas.fr
Project:EMSO http://www.emso-fr.org/EMSO-France
Depth: 2436.0 m
Title:EMSO Ligure Ouest : Data MII capteur MICROCAT
DateTime_Computer,Latitude,Longitude,Temperature,Conductivity,Pressure,DateTime_Instrument
DateTime_Computer,Latitude,Longitude,degC,S m-1,dbar,DateTime_Instrument
2020-06-23T00:00:57Z,42.805,6.029,13.2971,4.59970,2470.124,2020-6-23T02:01:42Z
2020-06-23T00:04:00Z,42.805,6.029,13.2969,4.59971,2470.11,2020-6-23T02:04:45Z
2020-06-23T00:07:03Z,42.805,6.029,13.2968,4.59971,2470.11,2020-6-23T02:07:48Z
2020-06-23T00:10:07Z,42.805,6.029,13.2968,4.59971,2470.147,2020-6-23T02:10:52Z
2020-06-23T00:13:10Z,42.805,6.029,13.2967,4.59970,2470.11,2020-6-23T02:13:55Z
2020-06-23T00:16:13Z,42.805,6.029,13.2968,4.59970,2470.133,2020-6-23T02:16:58Z
2020-06-23T00:19:16Z,42.805,6.029,13.2971,4.59970,2470.087,2020-6-23T02:20:01Z
2020-06-23T00:22:20Z,42.805,6.029,13.2966,4.59970,2470.087,2020-6-23T02:23:05Z
2020-06-23T00:25:23Z,42.805,6.029,13.2967,4.59970,2470.11,2020-6-23T02:26:08Z
2020-06-23T00:28:26Z,42.805,6.029,13.2969,4.59969,2470.11,2020-6-23T02:29:11Z
2020-06-23T00:31:30Z,42.805,6.029,13.2967,4.59969,2470.087,2020-6-23T02:32:15Z
2020-06-23T00:34:33Z,42.805,6.029,13.2970,4.59970,2470.1,2020-6-23T02:35:18Z
2020-06-23T00:37:36Z,42.805,6.029,13.2968,4.59970,2470.133,2020-6-23T02:38:21Z
2020-06-23T00:40:39Z,42.805,6.029,13.2972,4.59970,2470.11,2020-6-23T02:41:24Z
2020-06-23T00:43:43Z,42.805,6.029,13.2967,4.59969,2470.11,2020-6-23T02:44:28Z
2020-06-23T00:46:46Z,42.805,6.029,13.2969,4.59969,2470.11,2020-6-23T02:47:31Z
2020-06-23T00:49:50Z,42.805,6.029,13.2972,4.59970,2470.11,2020-6-23T02:50:35Z
2020-06-23T00:52:53Z,42.805,6.029,13.2968,4.59969,2470.063,2020-6-23T02:53:38Z
2020-06-23T00:55:56Z,42.805,6.029,13.2967,4.59970,2470.124,2020-6-23T02:56:41Z
2020-06-23T00:58:59Z,42.805,6.029,13.2969,4.59969,2470.087,2020-6-23T02:59:44Z
2020-06-23T01:02:03Z,42.805,6.029,13.2972,4.59970,2470.087,2020-6-23T03:02:47Z
2020-06-23T01:05:06Z,42.805,6.029,13.2968,4.59969,2470.087,2020-6-23T03:05:51Z
2020-06-23T01:08:09Z,42.805,6.029,13.2969,4.59969,2470.087,2020-6-23T03:08:54Z
2020-06-23T01:11:12Z,42.805,6.029,13.2971,4.59969,2470.077,2020-6-23T03:11:57Z
2020-06-23T01:14:16Z,42.805,6.029,13.2964,4.59969,2470.087,2020-6-23T03:15:01Z
2020-06-23T01:17:19Z,42.805,6.029,13.2972,4.59970,2470.063,2020-6-23T03:18:04Z
2020-06-23T01:20:22Z,42.805,6.029,13.2967,4.59971,2470.087,2020-6-23T03:21:07Z
2020-06-23T01:23:25Z,42.805,6.029,13.2968,4.59969,2470.063,2020-6-23T03:24:10Z
2020-06-23T01:26:29Z,42.805,6.029,13.2967,4.59970,2470.063,2020-6-23T03:27:14Z
2020-06-23T01:29:32Z,42.805,6.029,13.2968,4.59970,2470.063,2020-6-23T03:30:17Z
2020-06-23T01:32:35Z,42.805,6.029,13.2969,4.59970,2470.077,2020-6-23T03:33:20Z
2020-06-23T01:35:38Z,42.805,6.029,13.2975,4.59969,2470.063,2020-6-23T03:36:23Z
2020-06-23T01:38:42Z,42.805,6.029,13.2968,4.59969,2470.04,2020-6-23T03:39:27Z
2020-06-23T01:41:45Z,42.805,6.029,13.2966,4.59969,2470.063,2020-6-23T03:42:30Z
2020-06-23T01:44:48Z,42.805,6.029,13.2969,4.59969,2470.063,2020-6-23T03:45:33Z
2020-06-23T01:47:51Z,42.805,6.029,13.2971,4.59968,2470.053,2020-6-23T03:48:36Z
2020-06-23T01:50:55Z,42.805,6.029,13.2967,4.59969,2470.063,2020-6-23T03:51:40Z
2020-06-23T01:53:58Z,42.805,6.029,13.2967,4.59969,2470.063,2020-6-23T03:54:43Z
2020-06-23T01:57:01Z,42.805,6.029,13.2970,4.59970,2470.063,2020-6-23T03:57:46Z
2020-06-23T02:00:04Z,42.805,6.029,13.2974,4.59968,2470.063,2020-6-23T04:00:49Z
2020-06-23T02:03:08Z,42.805,6.029,13.2971,4.59969,2470.063,2020-6-23T04:03:53Z
2020-06-23T02:06:11Z,42.805,6.029,13.2968,4.59968,2470.04,2020-6-23T04:06:56Z
2020-06-23T02:09:14Z,42.805,6.029,13.2969,4.59970,2470.063,2020-6-23T04:09:59Z
2020-06-23T02:12:17Z,42.805,6.029,13.2967,4.59969,2470.053,2020-6-23T04:13:02Z
2020-06-23T02:15:21Z,42.805,6.029,13.2970,4.59968,2470.053,2020-6-23T04:16:06Z
2020-06-23T02:18:24Z,42.805,6.029,13.2967,4.59969,2470.03,2020-6-23T04:19:09Z
2020-06-23T02:21:27Z,42.805,6.029,13.2968,4.59969,2470.063,2020-6-23T04:22:12Z
2020-06-23T02:24:30Z,42.805,6.029,13.2968,4.59970,2470.03,2020-6-23T04:25:15Z
2020-06-23T02:27:34Z,42.805,6.029,13.2967,4.59969,2470.04,2020-6-23T04:28:19Z
2020-06-23T02:30:37Z,42.805,6.029,13.2970,4.59969,2470.063,2020-6-23T04:31:22Z
2020-06-23T02:33:40Z,42.805,6.029,13.2967,4.59969,2470.04,2020-6-23T04:34:25Z
2020-06-23T02:36:43Z,42.805,6.029,13.2968,4.59970,2470.053,2020-6-23T04:37:28Z
2020-06-23T02:39:47Z,42.805,6.029,13.2971,4.59969,2470.017,2020-6-23T04:40:32Z
2020-06-23T02:42:50Z,42.805,6.029,13.2967,4.59970,2470.063,2020-6-23T04:43:35Z
2020-06-23T02:45:53Z,42.805,6.029,13.2966,4.59969,2470.04,2020-6-23T04:46:38Z
2020-06-23T02:48:56Z,42.805,6.029,13.2972,4.59970,2470.017,2020-6-23T04:49:41Z
2020-06-23T02:52:00Z,42.805,6.029,13.2968,4.59968,2470.017,2020-6-23T04:52:45Z
2020-06-23T02:55:03Z,42.805,6.029,13.2970,4.59970,2470.017,2020-6-23T04:55:48Z
2020-06-23T02:58:06Z,42.805,6.029,13.2967,4.59968,2470.017,2020-6-23T04:58:51Z
2020-06-23T03:01:10Z,42.805,6.029,13.2968,4.59971,2470.017,2020-6-23T05:01:55Z
2020-06-23T03:04:13Z,42.805,6.029,13.2971,4.59970,2470.017,2020-6-23T05:04:58Z
2020-06-23T03:07:16Z,42.805,6.029,13.2968,4.59969,2470.017,2020-6-23T05:08:01Z
2020-06-23T03:10:20Z,42.805,6.029,13.2968,4.59969,2470.053,2020-6-23T05:11:05Z
2020-06-23T03:13:23Z,42.805,6.029,13.2973,4.59969,2470.03,2020-6-23T05:14:08Z
2020-06-23T03:16:26Z,42.805,6.029,13.2971,4.59969,2470.017,2020-6-23T05:17:11Z
2020-06-23T03:19:30Z,42.805,6.029,13.2968,4.59968,2470.007,2020-6-23T05:20:15Z
2020-06-23T03:22:33Z,42.805,6.029,13.2968,4.59971,2470.04,2020-6-23T05:23:18Z
2020-06-23T03:25:36Z,42.805,6.029,13.2967,4.59970,2470.017,2020-6-23T05:26:21Z
2020-06-23T03:28:39Z,42.805,6.029,13.2967,4.59970,2470.03,2020-6-23T05:29:24Z
2020-06-23T03:31:43Z,42.805,6.029,13.2968,4.59969,2470.017,2020-6-23T05:32:28Z
2020-06-23T03:34:46Z,42.805,6.029,13.2974,4.59970,2469.993,2020-6-23T05:35:31Z
2020-06-23T03:37:49Z,42.805,6.029,13.2967,4.59970,2470.017,2020-6-23T05:38:34Z
2020-06-23T03:40:52Z,42.805,6.029,13.2974,4.59969,2469.993,2020-6-23T05:41:37Z
2020-06-23T03:43:56Z,42.805,6.029,13.2967,4.59969,2469.993,2020-6-23T05:44:41Z
2020-06-23T03:46:59Z,42.805,6.029,13.2968,4.59969,2470.017,2020-6-23T05:47:44Z
2020-06-23T03:50:02Z,42.805,6.029,13.2971,4.59968,2470.04,2020-6-23T05:50:47Z
2020-06-23T03:53:05Z,42.805,6.029,13.2974,4.59971,2470.03,2020-6-23T05:53:50Z
2020-06-23T03:56:09Z,42.805,6.029,13.2968,4.59969,2470.017,2020-6-23T05:56:54Z
2020-06-23T03:59:12Z,42.805,6.029,13.2968,4.59969,2470.017,2020-6-23T05:59:57Z
2020-06-23T04:02:15Z,42.805,6.029,13.2974,4.59969,2470.017,2020-6-23T06:03:00Z
2020-06-23T04:05:18Z,42.805,6.029,13.2970,4.59969,2470.04,2020-6-23T06:06:03Z
2020-06-23T04:08:22Z,42.805,6.029,13.2971,4.59969,2470.03,2020-6-23T06:09:07Z
2020-06-23T04:11:25Z,42.805,6.029,13.2969,4.59969,2470.007,2020-6-23T06:12:10Z
2020-06-23T04:14:28Z,42.805,6.029,13.2971,4.59969,2470.04,2020-6-23T06:15:13Z
2020-06-23T04:17:31Z,42.805,6.029,13.2968,4.59970,2470.017,2020-6-23T06:18:16Z
2020-06-23T04:20:35Z,42.805,6.029,13.2971,4.59969,2470.017,2020-6-23T06:21:20Z
2020-06-23T04:23:38Z,42.805,6.029,13.2971,4.59969,2470.03,2020-6-23T06:24:23Z
2020-06-23T04:26:41Z,42.805,6.029,13.2967,4.59969,2470.04,2020-6-23T06:27:26Z
2020-06-23T04:29:44Z,42.805,6.029,13.2966,4.59970,2470.017,2020-6-23T06:30:29Z
2020-06-23T04:32:48Z,42.805,6.029,13.2967,4.59969,2470.04,2020-6-23T06:33:33Z
2020-06-23T04:35:51Z,42.805,6.029,13.2961,4.59969,2470.017,2020-6-23T06:36:36Z
2020-06-23T04:38:54Z,42.805,6.029,13.2967,4.59970,2470.077,2020-6-23T06:39:39Z
2020-06-23T04:41:57Z,42.805,6.029,13.2969,4.59969,2470.04,2020-6-23T06:42:42Z
2020-06-23T04:45:00Z,42.805,6.029,13.2974,4.59970,2470.04,2020-6-23T06:45:45Z
2020-06-23T04:48:04Z,42.805,6.029,13.2968,4.59969,2470.017,2020-6-23T06:48:49Z
2020-06-23T04:51:07Z,42.805,6.029,13.2965,4.59971,2470.04,2020-6-23T06:51:52Z
2020-06-23T04:54:11Z,42.805,6.029,13.2971,4.59969,2470.03,2020-6-23T06:54:56Z
2020-06-23T04:57:14Z,42.805,6.029,13.2970,4.59969,2470.04,2020-6-23T06:57:59Z
2020-06-23T05:00:17Z,42.805,6.029,13.2969,4.59970,2470.053,2020-6-23T07:01:02Z
2020-06-23T05:03:20Z,42.805,6.029,13.2968,4.59970,2470.063,2020-6-23T07:04:05Z
2020-06-23T05:06:23Z,42.805,6.029,13.2965,4.59970,2470.063,2020-6-23T07:07:09Z
2020-06-23T05:09:27Z,42.805,6.029,13.2971,4.59972,2470.063,2020-6-23T07:10:12Z
2020-06-23T05:12:30Z,42.805,6.029,13.2974,4.59969,2470.04,2020-6-23T07:13:15Z
2020-06-23T05:15:33Z,42.805,6.029,13.2967,4.59970,2470.053,2020-6-23T07:16:18Z
2020-06-23T05:18:37Z,42.805,6.029,13.2970,4.59970,2470.063,2020-6-23T07:19:22Z
2020-06-23T05:21:40Z,42.805,6.029,13.2969,4.59970,2470.053,2020-6-23T07:22:25Z
2020-06-23T05:24:43Z,42.805,6.029,13.2971,4.59969,2470.04,2020-6-23T07:25:28Z
2020-06-23T05:27:46Z,42.805,6.029,13.2966,4.59969,2470.063,2020-6-23T07:28:31Z
2020-06-23T05:30:50Z,42.805,6.029,13.2971,4.59970,2470.077,2020-6-23T07:31:35Z
2020-06-23T05:33:53Z,42.805,6.029,13.2967,4.59971,2470.063,2020-6-23T07:34:38Z
2020-06-23T05:36:56Z,42.805,6.029,13.2968,4.59970,2470.063,2020-6-23T07:37:41Z
2020-06-23T05:39:59Z,42.805,6.029,13.2966,4.59971,2470.063,2020-6-23T07:40:44Z
2020-06-23T05:43:03Z,42.805,6.029,13.2968,4.59970,2470.077,2020-6-23T07:43:48Z
2020-06-23T05:46:06Z,42.805,6.029,13.2968,4.59970,2470.063,2020-6-23T07:46:51Z
2020-06-23T05:49:09Z,42.805,6.029,13.2971,4.59969,2470.063,2020-6-23T07:49:54Z
2020-06-23T05:52:12Z,42.805,6.029,13.2968,4.59970,2470.053,2020-6-23T07:52:57Z
2020-06-23T05:55:16Z,42.805,6.029,13.2968,4.59971,2470.124,2020-6-23T07:56:01Z
2020-06-23T05:58:19Z,42.805,6.029,13.2970,4.59969,2470.133,2020-6-23T07:59:04Z
2020-06-23T06:01:22Z,42.805,6.029,13.2968,4.59970,2470.087,2020-6-23T08:02:07Z
2020-06-23T06:04:25Z,42.805,6.029,13.2973,4.59970,2470.087,2020-6-23T08:05:10Z
2020-06-23T06:07:29Z,42.805,6.029,13.2965,4.59970,2470.087,2020-6-23T08:08:14Z
2020-06-23T06:10:32Z,42.805,6.029,13.2968,4.59970,2470.063,2020-6-23T08:11:17Z
2020-06-23T06:13:35Z,42.805,6.029,13.2970,4.59970,2470.124,2020-6-23T08:14:20Z
2020-06-23T06:16:38Z,42.805,6.029,13.2967,4.59971,2470.087,2020-6-23T08:17:23Z
2020-06-23T06:19:42Z,42.805,6.029,13.2969,4.59970,2470.1,2020-6-23T08:20:27Z
2020-06-23T06:22:45Z,42.805,6.029,13.2972,4.59970,2470.124,2020-6-23T08:23:30Z
2020-06-23T06:25:48Z,42.805,6.029,13.2969,4.59970,2470.087,2020-6-23T08:26:33Z
2020-06-23T06:28:51Z,42.805,6.029,13.2969,4.59971,2470.147,2020-6-23T08:29:36Z
2020-06-23T06:31:55Z,42.805,6.029,13.2969,4.59970,2470.087,2020-6-23T08:32:40Z
2020-06-23T06:34:58Z,42.805,6.029,13.2969,4.59970,2470.11,2020-6-23T08:35:43Z
2020-06-23T06:38:01Z,42.805,6.029,13.2968,4.59970,2470.147,2020-6-23T08:38:46Z
2020-06-23T06:41:04Z,42.805,6.029,13.2970,4.59970,2470.1,2020-6-23T08:41:49Z
2020-06-23T06:44:07Z,42.805,6.029,13.2971,4.59971,2470.11,2020-6-23T08:44:52Z
2020-06-23T06:47:11Z,42.805,6.029,13.2970,4.59971,2470.11,2020-6-23T08:47:56Z
2020-06-23T06:50:14Z,42.805,6.029,13.2971,4.59970,2470.11,2020-6-23T08:50:59Z
2020-06-23T06:53:17Z,42.805,6.029,13.2966,4.59969,2470.11,2020-6-23T08:54:02Z
2020-06-23T06:56:20Z,42.805,6.029,13.2970,4.59970,2470.1,2020-6-23T08:57:05Z
2020-06-23T06:59:24Z,42.805,6.029,13.2970,4.59970,2470.11,2020-6-23T09:00:09Z
2020-06-23T07:02:27Z,42.805,6.029,13.2967,4.59970,2470.124,2020-6-23T09:03:12Z
2020-06-23T07:05:30Z,42.805,6.029,13.2967,4.59971,2470.133,2020-6-23T09:06:15Z
2020-06-23T07:08:33Z,42.805,6.029,13.2968,4.59971,2470.147,2020-6-23T09:09:18Z
2020-06-23T07:11:36Z,42.805,6.029,13.2967,4.59970,2470.133,2020-6-23T09:12:21Z
2020-06-23T07:14:40Z,42.805,6.029,13.2973,4.59971,2470.133,2020-6-23T09:15:25Z
2020-06-23T07:17:43Z,42.805,6.029,13.2967,4.59970,2470.156,2020-6-23T09:18:28Z
2020-06-23T07:20:46Z,42.805,6.029,13.2971,4.59971,2470.133,2020-6-23T09:21:31Z
2020-06-23T07:23:49Z,42.805,6.029,13.2968,4.59971,2470.133,2020-6-23T09:24:34Z
2020-06-23T07:26:53Z,42.805,6.029,13.2967,4.59970,2470.147,2020-6-23T09:27:38Z
2020-06-23T07:29:56Z,42.805,6.029,13.2967,4.59971,2470.133,2020-6-23T09:30:41Z
2020-06-23T07:32:59Z,42.805,6.029,13.2969,4.59971,2470.156,2020-6-23T09:33:44Z
2020-06-23T07:36:03Z,42.805,6.029,13.2971,4.59971,2470.147,2020-6-23T09:36:48Z
2020-06-23T07:39:06Z,42.805,6.029,13.2968,4.59970,2470.147,2020-6-23T09:39:51Z
2020-06-23T07:42:09Z,42.805,6.029,13.2970,4.59971,2470.171,2020-6-23T09:42:54Z
2020-06-23T07:45:13Z,42.805,6.029,13.2970,4.59971,2470.156,2020-6-23T09:45:58Z
2020-06-23T07:48:16Z,42.805,6.029,13.2968,4.59971,2470.156,2020-6-23T09:49:01Z
2020-06-23T07:51:19Z,42.805,6.029,13.2974,4.59971,2470.171,2020-6-23T09:52:04Z
2020-06-23T07:54:22Z,42.805,6.029,13.2970,4.59971,2470.133,2020-6-23T09:55:07Z
2020-06-23T07:57:26Z,42.805,6.029,13.2973,4.59971,2470.133,2020-6-23T09:58:11Z
2020-06-23T08:00:29Z,42.805,6.029,13.2968,4.59971,2470.133,2020-6-23T10:01:14Z
2020-06-23T08:03:32Z,42.805,6.029,13.2970,4.59973,2470.156,2020-6-23T10:04:17Z
2020-06-23T08:06:35Z,42.805,6.029,13.2969,4.59972,2470.171,2020-6-23T10:07:20Z
2020-06-23T08:09:39Z,42.805,6.029,13.2971,4.59971,2470.156,2020-6-23T10:10:24Z
2020-06-23T08:12:42Z,42.805,6.029,13.2971,4.59971,2470.18,2020-6-23T10:13:27Z
2020-06-23T08:15:45Z,42.805,6.029,13.2970,4.59970,2470.133,2020-6-23T10:16:30Z
2020-06-23T08:18:48Z,42.805,6.029,13.2970,4.59973,2470.133,2020-6-23T10:19:33Z
2020-06-23T08:21:51Z,42.805,6.029,13.2970,4.59971,2470.124,2020-6-23T10:22:36Z
2020-06-23T08:24:55Z,42.805,6.029,13.2972,4.59970,2470.156,2020-6-23T10:25:40Z
2020-06-23T08:27:58Z,42.805,6.029,13.2968,4.59973,2470.133,2020-6-23T10:28:43Z
2020-06-23T08:31:01Z,42.805,6.029,13.2974,4.59971,2470.133,2020-6-23T10:31:46Z
2020-06-23T08:34:05Z,42.805,6.029,13.2971,4.59971,2470.171,2020-6-23T10:34:50Z
2020-06-23T08:37:08Z,42.805,6.029,13.2970,4.59971,2470.171,2020-6-23T10:37:53Z
2020-06-23T08:40:11Z,42.805,6.029,13.2971,4.59971,2470.156,2020-6-23T10:40:56Z
2020-06-23T08:43:14Z,42.805,6.029,13.2971,4.59972,2470.147,2020-6-23T10:43:59Z
2020-06-23T08:46:18Z,42.805,6.029,13.2972,4.59970,2470.133,2020-6-23T10:47:03Z
2020-06-23T08:49:21Z,42.805,6.029,13.2971,4.59972,2470.133,2020-6-23T10:50:06Z
2020-06-23T08:52:24Z,42.805,6.029,13.2969,4.59971,2470.156,2020-6-23T10:53:09Z
2020-06-23T08:55:28Z,42.805,6.029,13.2970,4.59972,2470.171,2020-6-23T10:56:13Z
2020-06-23T08:58:31Z,42.805,6.029,13.2967,4.59971,2470.133,2020-6-23T10:59:16Z
2020-06-23T09:01:34Z,42.805,6.029,13.2971,4.59971,2470.11,2020-6-23T11:02:19Z
2020-06-23T09:04:37Z,42.805,6.029,13.2971,4.59971,2470.11,2020-6-23T11:05:22Z
2020-06-23T09:07:41Z,42.805,6.029,13.2968,4.59971,2470.133,2020-6-23T11:08:26Z
2020-06-23T09:10:44Z,42.805,6.029,13.2970,4.59971,2470.147,2020-6-23T11:11:29Z
2020-06-23T09:13:47Z,42.805,6.029,13.2978,4.59971,2470.11,2020-6-23T11:14:32Z
2020-06-23T09:16:50Z,42.805,6.029,13.2971,4.59971,2470.096,2020-6-23T11:17:35Z
2020-06-23T09:19:54Z,42.805,6.029,13.2968,4.59972,2470.11,2020-6-23T11:20:39Z
2020-06-23T09:22:57Z,42.805,6.029,13.2975,4.59971,2470.147,2020-6-23T11:23:42Z
2020-06-23T09:26:00Z,42.805,6.029,13.2971,4.59971,2470.11,2020-6-23T11:26:45Z
2020-06-23T09:29:03Z,42.805,6.029,13.2967,4.59971,2470.133,2020-6-23T11:29:48Z
2020-06-23T09:32:07Z,42.805,6.029,13.2969,4.59971,2470.11,2020-6-23T11:32:52Z
2020-06-23T09:35:10Z,42.805,6.029,13.2972,4.59972,2470.133,2020-6-23T11:35:55Z
2020-06-23T09:38:13Z,42.805,6.029,13.2971,4.59972,2470.11,2020-6-23T11:38:58Z
2020-06-23T09:41:17Z,42.805,6.029,13.2971,4.59971,2470.147,2020-6-23T11:42:02Z
2020-06-23T09:44:20Z,42.805,6.029,13.2975,4.59972,2470.087,2020-6-23T11:45:05Z
2020-06-23T09:47:23Z,42.805,6.029,13.2969,4.59972,2470.11,2020-6-23T11:48:08Z
2020-06-23T09:50:27Z,42.805,6.029,13.2971,4.59971,2470.124,2020-6-23T11:51:12Z
2020-06-23T09:53:30Z,42.805,6.029,13.2974,4.59971,2470.124,2020-6-23T11:54:15Z
2020-06-23T09:56:33Z,42.805,6.029,13.2971,4.59972,2470.11,2020-6-23T11:57:18Z
2020-06-23T09:59:36Z,42.805,6.029,13.2968,4.59972,2470.1,2020-6-23T12:00:21Z
2020-06-23T10:02:40Z,42.805,6.029,13.2972,4.59971,2470.11,2020-6-23T12:03:25Z
2020-06-23T10:05:43Z,42.805,6.029,13.2971,4.59971,2470.087,2020-6-23T12:06:28Z
2020-06-23T10:08:46Z,42.805,6.029,13.2974,4.59971,2470.11,2020-6-23T12:09:31Z
2020-06-23T10:11:50Z,42.805,6.029,13.2974,4.59971,2470.11,2020-6-23T12:12:35Z
2020-06-23T10:14:53Z,42.805,6.029,13.2969,4.59973,2470.087,2020-6-23T12:15:38Z
2020-06-23T10:17:56Z,42.805,6.029,13.2969,4.59971,2470.087,2020-6-23T12:18:41Z
2020-06-23T10:20:59Z,42.805,6.029,13.2970,4.59973,2470.1,2020-6-23T12:21:44Z
2020-06-23T10:24:03Z,42.805,6.029,13.2972,4.59971,2470.1,2020-6-23T12:24:48Z
2020-06-23T10:27:06Z,42.805,6.029,13.2968,4.59971,2470.063,2020-6-23T12:27:51Z
2020-06-23T10:30:09Z,42.805,6.029,13.2974,4.59971,2470.087,2020-6-23T12:30:54Z
2020-06-23T10:33:12Z,42.805,6.029,13.2974,4.59971,2470.1,2020-6-23T12:33:57Z
2020-06-23T10:36:16Z,42.805,6.029,13.2972,4.59972,2470.087,2020-6-23T12:37:01Z
2020-06-23T10:39:19Z,42.805,6.029,13.2971,4.59971,2470.063,2020-6-23T12:40:04Z
2020-06-23T10:42:22Z,42.805,6.029,13.2970,4.59971,2470.063,2020-6-23T12:43:07Z
2020-06-23T10:45:25Z,42.805,6.029,13.2967,4.59972,2470.077,2020-6-23T12:46:10Z
2020-06-23T10:48:28Z,42.805,6.029,13.2973,4.59971,2470.077,2020-6-23T12:49:13Z
2020-06-23T10:51:32Z,42.805,6.029,13.2970,4.59972,2470.063,2020-6-23T12:52:17Z
2020-06-23T10:54:35Z,42.805,6.029,13.2971,4.59972,2470.1,2020-6-23T12:55:20Z
2020-06-23T10:57:38Z,42.805,6.029,13.2973,4.59973,2470.04,2020-6-23T12:58:23Z
2020-06-23T11:00:41Z,42.805,6.029,13.2970,4.59973,2470.063,2020-6-23T13:01:27Z
2020-06-23T11:03:45Z,42.805,6.029,13.2969,4.59972,2470.077,2020-6-23T13:04:30Z
2020-06-23T11:06:48Z,42.805,6.029,13.2972,4.59973,2470.063,2020-6-23T13:07:33Z
2020-06-23T11:09:51Z,42.805,6.029,13.2969,4.59972,2470.053,2020-6-23T13:10:36Z
2020-06-23T11:12:54Z,42.805,6.029,13.2974,4.59972,2470.017,2020-6-23T13:13:39Z
2020-06-23T11:15:58Z,42.805,6.029,13.2972,4.59971,2470.053,2020-6-23T13:16:43Z
2020-06-23T11:19:01Z,42.805,6.029,13.2972,4.59973,2470.053,2020-6-23T13:19:46Z
2020-06-23T11:22:04Z,42.805,6.029,13.2966,4.59972,2470.04,2020-6-23T13:22:49Z
2020-06-23T11:25:07Z,42.805,6.029,13.2970,4.59972,2470.077,2020-6-23T13:25:52Z
2020-06-23T11:28:11Z,42.805,6.029,13.2974,4.59973,2470.017,2020-6-23T13:28:56Z
2020-06-23T11:31:14Z,42.805,6.029,13.2969,4.59972,2470.077,2020-6-23T13:31:59Z
2020-06-23T11:34:17Z,42.805,6.029,13.2971,4.59972,2470.053,2020-6-23T13:35:02Z
2020-06-23T11:37:21Z,42.805,6.029,13.2968,4.59972,2470.04,2020-6-23T13:38:06Z
2020-06-23T11:40:24Z,42.805,6.029,13.2971,4.59971,2470.063,2020-6-23T13:41:09Z
2020-06-23T11:43:27Z,42.805,6.029,13.2969,4.59972,2470.077,2020-6-23T13:44:12Z
2020-06-23T11:46:31Z,42.805,6.029,13.2967,4.59972,2470.04,2020-6-23T13:47:16Z
2020-06-23T11:49:34Z,42.805,6.029,13.2968,4.59973,2470.03,2020-6-23T13:50:19Z
2020-06-23T11:52:37Z,42.805,6.029,13.2974,4.59972,2470.063,2020-6-23T13:53:22Z
2020-06-23T11:55:40Z,42.805,6.029,13.2969,4.59971,2470.053,2020-6-23T13:56:25Z
2020-06-23T11:58:44Z,42.805,6.029,13.2974,4.59971,2470.053,2020-6-23T13:59:29Z
2020-06-23T12:01:47Z,42.805,6.029,13.2967,4.59973,2470.017,2020-6-23T14:02:32Z
2020-06-23T12:04:50Z,42.805,6.029,13.2971,4.59972,2470.017,2020-6-23T14:05:35Z
2020-06-23T12:07:53Z,42.805,6.029,13.2972,4.59973,2470.04,2020-6-23T14:08:38Z
2020-06-23T12:10:57Z,42.805,6.029,13.2967,4.59971,2470.03,2020-6-23T14:11:42Z
2020-06-23T12:14:00Z,42.805,6.029,13.2971,4.59972,2469.993,2020-6-23T14:14:45Z
2020-06-23T12:17:03Z,42.805,6.029,13.2969,4.59973,2470.003,2020-6-23T14:17:48Z
2020-06-23T12:20:06Z,42.805,6.029,13.2971,4.59973,2470.007,2020-6-23T14:20:51Z
2020-06-23T12:23:09Z,42.805,6.029,13.2973,4.59971,2470.03,2020-6-23T14:23:55Z
2020-06-23T12:26:13Z,42.805,6.029,13.2970,4.59972,2470.03,2020-6-23T14:26:58Z
2020-06-23T12:29:16Z,42.805,6.029,13.2970,4.59971,2470.003,2020-6-23T14:30:01Z
2020-06-23T12:32:19Z,42.805,6.029,13.2972,4.59971,2470.007,2020-6-23T14:33:04Z
2020-06-23T12:35:22Z,42.805,6.029,13.2971,4.59973,2470.017,2020-6-23T14:36:07Z
2020-06-23T12:38:26Z,42.805,6.029,13.2974,4.59972,2470.03,2020-6-23T14:39:11Z
2020-06-23T12:41:29Z,42.805,6.029,13.2971,4.59972,2469.993,2020-6-23T14:42:14Z
2020-06-23T12:44:32Z,42.805,6.029,13.2971,4.59971,2470.007,2020-6-23T14:45:17Z
2020-06-23T12:47:35Z,42.805,6.029,13.2973,4.59973,2470.03,2020-6-23T14:48:20Z
2020-06-23T12:50:39Z,42.805,6.029,13.2971,4.59972,2470.007,2020-6-23T14:51:24Z
2020-06-23T12:53:42Z,42.805,6.029,13.2971,4.59971,2469.97,2020-6-23T14:54:27Z
2020-06-23T12:56:45Z,42.805,6.029,13.2968,4.59972,2469.993,2020-6-23T14:57:30Z
2020-06-23T12:59:49Z,42.805,6.029,13.2971,4.59971,2469.993,2020-6-23T15:00:34Z
2020-06-23T13:02:52Z,42.805,6.029,13.2971,4.59972,2469.97,2020-6-23T15:03:37Z
2020-06-23T13:05:55Z,42.805,6.029,13.2972,4.59972,2469.97,2020-6-23T15:06:40Z
2020-06-23T13:08:58Z,42.805,6.029,13.2969,4.59972,2469.993,2020-6-23T15:09:43Z
2020-06-23T13:12:02Z,42.805,6.029,13.2971,4.59971,2469.993,2020-6-23T15:12:47Z
2020-06-23T13:15:05Z,42.805,6.029,13.2970,4.59971,2469.993,2020-6-23T15:15:50Z
2020-06-23T13:18:08Z,42.805,6.029,13.2972,4.59972,2469.947,2020-6-23T15:18:53Z
2020-06-23T13:21:12Z,42.805,6.029,13.2971,4.59972,2469.97,2020-6-23T15:21:57Z
2020-06-23T13:24:15Z,42.805,6.029,13.2974,4.59972,2469.993,2020-6-23T15:25:00Z
2020-06-23T13:27:18Z,42.805,6.029,13.2971,4.59972,2469.947,2020-6-23T15:28:03Z
2020-06-23T13:30:21Z,42.805,6.029,13.2971,4.59973,2469.947,2020-6-23T15:31:06Z
2020-06-23T13:33:25Z,42.805,6.029,13.2973,4.59972,2469.993,2020-6-23T15:34:10Z
2020-06-23T13:36:28Z,42.805,6.029,13.2973,4.59972,2469.97,2020-6-23T15:37:13Z
2020-06-23T13:39:31Z,42.805,6.029,13.2975,4.59971,2469.947,2020-6-23T15:40:16Z
2020-06-23T13:42:34Z,42.805,6.029,13.2971,4.59971,2469.993,2020-6-23T15:43:19Z
2020-06-23T13:45:38Z,42.805,6.029,13.2974,4.59972,2469.97,2020-6-23T15:46:23Z
2020-06-23T13:48:41Z,42.805,6.029,13.2971,4.59972,2470.007,2020-6-23T15:49:26Z
2020-06-23T13:51:44Z,42.805,6.029,13.2972,4.59971,2469.97,2020-6-23T15:52:29Z
2020-06-23T13:54:47Z,42.805,6.029,13.2972,4.59972,2469.97,2020-6-23T15:55:32Z
2020-06-23T13:57:51Z,42.805,6.029,13.2968,4.59971,2469.984,2020-6-23T15:58:36Z
2020-06-23T14:00:54Z,42.805,6.029,13.2968,4.59972,2469.984,2020-6-23T16:01:39Z
2020-06-23T14:03:57Z,42.805,6.029,13.2973,4.59971,2469.923,2020-6-23T16:04:42Z
2020-06-23T14:07:00Z,42.805,6.029,13.2971,4.59972,2469.97,2020-6-23T16:07:45Z
2020-06-23T14:10:04Z,42.805,6.029,13.2974,4.59973,2469.947,2020-6-23T16:10:49Z
2020-06-23T14:13:07Z,42.805,6.029,13.2971,4.59972,2469.947,2020-6-23T16:13:52Z
2020-06-23T14:16:10Z,42.805,6.029,13.2973,4.59973,2469.97,2020-6-23T16:16:55Z
2020-06-23T14:19:13Z,42.805,6.029,13.2971,4.59972,2469.97,2020-6-23T16:19:58Z
2020-06-23T14:22:17Z,42.805,6.029,13.2974,4.59972,2469.984,2020-6-23T16:23:02Z
2020-06-23T14:25:20Z,42.805,6.029,13.2973,4.59973,2469.947,2020-6-23T16:26:05Z
2020-06-23T14:28:23Z,42.805,6.029,13.2973,4.59973,2469.96,2020-6-23T16:29:08Z
2020-06-23T14:31:26Z,42.805,6.029,13.2973,4.59973,2469.97,2020-6-23T16:32:11Z
2020-06-23T14:34:30Z,42.805,6.029,13.2974,4.59972,2469.984,2020-6-23T16:35:15Z
2020-06-23T14:37:33Z,42.805,6.029,13.2974,4.59972,2469.97,2020-6-23T16:38:18Z
2020-06-23T14:40:36Z,42.805,6.029,13.2973,4.59971,2469.947,2020-6-23T16:41:21Z
2020-06-23T14:43:39Z,42.805,6.029,13.2973,4.59972,2469.97,2020-6-23T16:44:24Z
2020-06-23T14:46:43Z,42.805,6.029,13.2973,4.59972,2469.97,2020-6-23T16:47:28Z
2020-06-23T14:49:46Z,42.805,6.029,13.2970,4.59973,2469.984,2020-6-23T16:50:31Z
2020-06-23T14:52:49Z,42.805,6.029,13.2974,4.59972,2470.007,2020-6-23T16:53:34Z
2020-06-23T14:55:53Z,42.805,6.029,13.2972,4.59972,2469.984,2020-6-23T16:56:38Z
2020-06-23T14:58:56Z,42.805,6.029,13.2974,4.59972,2469.97,2020-6-23T16:59:41Z
2020-06-23T15:01:59Z,42.805,6.029,13.2972,4.59972,2469.947,2020-6-23T17:02:44Z
2020-06-23T15:05:02Z,42.805,6.029,13.2971,4.59972,2469.97,2020-6-23T17:05:47Z
2020-06-23T15:08:05Z,42.805,6.029,13.2971,4.59973,2469.97,2020-6-23T17:08:50Z
2020-06-23T15:11:09Z,42.805,6.029,13.2967,4.59972,2469.947,2020-6-23T17:11:54Z
2020-06-23T15:14:12Z,42.805,6.029,13.2971,4.59972,2469.96,2020-6-23T17:14:57Z